Year,Month,Day,Hour,Minute,Value (Times are PST for temperature in C)
2020,08,09,00,00,13.30
2020,08,09,00,01,13.30
2020,08,09,00,02,13.30
2020,08,09,00,03,13.30
2020,08,09,00,04,13.30
2020,08,09,00,05,13.40
2020,08,09,00,06,13.40
2020,08,09,00,07,13.40
2020,08,09,00,08,13.40
2020,08,09,00,09,13.40
2020,08,09,00,10,13.40
2020,08,09,00,11,13.40
2020,08,09,00,12,13.40
2020,08,09,00,13,13.30
2020,08,09,00,14,13.30
2020,08,09,00,15,13.30
2020,08,09,00,16,13.30
2020,08,09,00,17,13.30
2020,08,09,00,18,13.30
2020,08,09,00,19,13.30
2020,08,09,00,20,13.30
2020,08,09,00,21,13.30
2020,08,09,00,22,13.30
2020,08,09,00,23,13.30
2020,08,09,00,24,13.30
2020,08,09,00,25,13.30
2020,08,09,00,26,13.20
2020,08,09,00,27,13.20
2020,08,09,00,28,13.20
2020,08,09,00,29,13.20
2020,08,09,00,30,13.20
2020,08,09,00,31,13.20
2020,08,09,00,32,13.20
2020,08,09,00,33,13.20
2020,08,09,00,34,13.20
2020,08,09,00,35,13.20
2020,08,09,00,36,13.20
2020,08,09,00,37,13.20
2020,08,09,00,38,13.20
2020,08,09,00,39,13.20
2020,08,09,00,40,13.10
2020,08,09,00,41,13.10
2020,08,09,00,42,13.10
2020,08,09,00,43,13.10
2020,08,09,00,44,13.10
2020,08,09,00,45,13.00
2020,08,09,00,46,13.00
2020,08,09,00,47,13.00
2020,08,09,00,48,13.00
2020,08,09,00,49,12.90
2020,08,09,00,50,12.90
2020,08,09,00,51,12.90
2020,08,09,00,52,12.90
2020,08,09,00,53,12.80
2020,08,09,00,54,12.80
2020,08,09,00,55,12.80
2020,08,09,00,56,12.80
2020,08,09,00,57,12.80
2020,08,09,00,58,12.80
2020,08,09,00,59,12.80
2020,08,09,01,00,12.80
2020,08,09,01,01,12.70
2020,08,09,01,02,12.70
2020,08,09,01,03,12.70
2020,08,09,01,04,12.80
2020,08,09,01,05,12.70
2020,08,09,01,06,12.70
2020,08,09,01,07,12.70
2020,08,09,01,08,12.70
2020,08,09,01,09,12.70
2020,08,09,01,10,12.70
2020,08,09,01,11,12.70
2020,08,09,01,12,12.70
2020,08,09,01,13,12.70
2020,08,09,01,14,12.60
2020,08,09,01,15,12.60
2020,08,09,01,16,12.60
2020,08,09,01,17,12.60
2020,08,09,01,18,12.50
2020,08,09,01,19,12.50
2020,08,09,01,20,12.40
2020,08,09,01,21,12.40
2020,08,09,01,22,12.40
2020,08,09,01,23,12.40
2020,08,09,01,24,12.40
2020,08,09,01,25,12.40
2020,08,09,01,26,12.30
2020,08,09,01,27,12.30
2020,08,09,01,28,12.30
2020,08,09,01,29,12.30
2020,08,09,01,30,12.30
2020,08,09,01,31,12.30
2020,08,09,01,32,12.30
2020,08,09,01,33,12.30
2020,08,09,01,34,12.30
2020,08,09,01,35,12.20
2020,08,09,01,36,12.20
2020,08,09,01,37,12.20
2020,08,09,01,38,12.20
2020,08,09,01,39,12.20
2020,08,09,01,40,12.30
2020,08,09,01,41,12.30
2020,08,09,01,42,12.30
2020,08,09,01,43,12.30
2020,08,09,01,44,12.30
2020,08,09,01,45,12.30
2020,08,09,01,46,12.30
2020,08,09,01,47,12.30
2020,08,09,01,48,12.30
2020,08,09,01,49,12.30
2020,08,09,01,50,12.30
2020,08,09,01,51,12.30
2020,08,09,01,52,12.30
2020,08,09,01,53,12.20
2020,08,09,01,54,12.20
2020,08,09,01,55,12.20
2020,08,09,01,56,12.10
2020,08,09,01,57,12.10
2020,08,09,01,58,12.00
2020,08,09,01,59,12.00
2020,08,09,02,00,12.00
2020,08,09,02,01,11.90
2020,08,09,02,02,11.90
2020,08,09,02,03,11.90
2020,08,09,02,04,11.90
2020,08,09,02,05,11.80
2020,08,09,02,06,11.80
2020,08,09,02,07,11.80
2020,08,09,02,08,11.80
2020,08,09,02,09,11.80
2020,08,09,02,10,11.80
2020,08,09,02,11,11.80
2020,08,09,02,12,11.70
2020,08,09,02,13,11.70
2020,08,09,02,14,11.70
2020,08,09,02,15,11.70
2020,08,09,02,16,11.70
2020,08,09,02,17,11.60
2020,08,09,02,18,11.60
2020,08,09,02,19,11.60
2020,08,09,02,20,11.50
2020,08,09,02,21,11.50
2020,08,09,02,22,11.50
2020,08,09,02,23,11.50
2020,08,09,02,24,11.50
2020,08,09,02,25,11.40
2020,08,09,02,26,11.40
2020,08,09,02,27,11.40
2020,08,09,02,28,11.40
2020,08,09,02,29,11.40
2020,08,09,02,30,11.40
2020,08,09,02,31,11.40
2020,08,09,02,32,11.30
2020,08,09,02,33,11.30
2020,08,09,02,34,11.30
2020,08,09,02,35,11.30
2020,08,09,02,36,11.30
2020,08,09,02,37,11.30
2020,08,09,02,38,11.30
2020,08,09,02,39,11.20
2020,08,09,02,40,11.20
2020,08,09,02,41,11.20
2020,08,09,02,42,11.20
2020,08,09,02,43,11.20
2020,08,09,02,44,11.20
2020,08,09,02,45,11.10
2020,08,09,02,46,11.10
2020,08,09,02,47,11.10
2020,08,09,02,48,11.10
2020,08,09,02,49,11.10
2020,08,09,02,50,11.10
2020,08,09,02,51,11.10
2020,08,09,02,52,11.00
2020,08,09,02,53,11.00
2020,08,09,02,54,11.00
2020,08,09,02,55,11.00
2020,08,09,02,56,11.00
2020,08,09,02,57,11.00
2020,08,09,02,58,11.00
2020,08,09,02,59,10.90
2020,08,09,03,00,10.90
2020,08,09,03,01,10.90
2020,08,09,03,02,10.90
2020,08,09,03,03,10.90
2020,08,09,03,04,10.90
2020,08,09,03,05,10.90
2020,08,09,03,06,10.90
2020,08,09,03,07,10.90
2020,08,09,03,08,10.90
2020,08,09,03,09,10.80
2020,08,09,03,10,10.80
2020,08,09,03,11,10.80
2020,08,09,03,12,10.80
2020,08,09,03,13,10.80
2020,08,09,03,14,10.80
2020,08,09,03,15,10.80
2020,08,09,03,16,10.80
2020,08,09,03,17,10.80
2020,08,09,03,18,10.80
2020,08,09,03,19,10.80
2020,08,09,03,20,10.80
2020,08,09,03,21,10.70
2020,08,09,03,22,10.70
2020,08,09,03,23,10.70
2020,08,09,03,24,10.70
2020,08,09,03,25,10.70
2020,08,09,03,26,10.70
2020,08,09,03,27,10.70
2020,08,09,03,28,10.70
2020,08,09,03,29,10.70
2020,08,09,03,30,10.70
2020,08,09,03,31,10.70
2020,08,09,03,32,10.70
2020,08,09,03,33,10.70
2020,08,09,03,34,10.70
2020,08,09,03,35,10.70
2020,08,09,03,36,10.70
2020,08,09,03,37,10.70
2020,08,09,03,38,10.60
2020,08,09,03,39,10.60
2020,08,09,03,40,10.60
2020,08,09,03,41,10.60
2020,08,09,03,42,10.60
2020,08,09,03,43,10.60
2020,08,09,03,44,10.60
2020,08,09,03,45,10.60
2020,08,09,03,46,10.60
2020,08,09,03,47,10.60
2020,08,09,03,48,10.60
2020,08,09,03,49,10.60
2020,08,09,03,50,10.60
2020,08,09,03,51,10.60
2020,08,09,03,52,10.60
2020,08,09,03,53,10.60
2020,08,09,03,54,10.60
2020,08,09,03,55,10.60
2020,08,09,03,56,10.60
2020,08,09,03,57,10.60
2020,08,09,03,58,10.60
2020,08,09,03,59,10.60
2020,08,09,04,00,10.60
2020,08,09,04,01,10.60
2020,08,09,04,02,10.70
2020,08,09,04,03,10.60
2020,08,09,04,04,10.70
2020,08,09,04,05,10.60
2020,08,09,04,06,10.60
2020,08,09,04,07,10.60
2020,08,09,04,08,10.60
2020,08,09,04,09,10.60
2020,08,09,04,10,10.60
2020,08,09,04,11,10.60
2020,08,09,04,12,10.60
2020,08,09,04,13,10.60
2020,08,09,04,14,10.50
2020,08,09,04,15,10.50
2020,08,09,04,16,10.50
2020,08,09,04,17,10.50
2020,08,09,04,18,10.40
2020,08,09,04,19,10.40
2020,08,09,04,20,10.40
2020,08,09,04,21,10.30
2020,08,09,04,22,10.30
2020,08,09,04,23,10.30
2020,08,09,04,24,10.30
2020,08,09,04,25,10.30
2020,08,09,04,26,10.30
2020,08,09,04,27,10.20
2020,08,09,04,28,10.20
2020,08,09,04,29,10.20
2020,08,09,04,30,10.20
2020,08,09,04,31,10.20
2020,08,09,04,32,10.20
2020,08,09,04,33,10.20
2020,08,09,04,34,10.10
2020,08,09,04,35,10.10
2020,08,09,04,36,10.10
2020,08,09,04,37,10.10
2020,08,09,04,38,10.10
2020,08,09,04,39,10.00
2020,08,09,04,40,10.00
2020,08,09,04,41,10.00
2020,08,09,04,42,10.00
2020,08,09,04,43,9.90
2020,08,09,04,44,9.90
2020,08,09,04,45,9.90
2020,08,09,04,46,9.90
2020,08,09,04,47,9.90
2020,08,09,04,48,9.90
2020,08,09,04,49,9.90
2020,08,09,04,50,9.90
2020,08,09,04,51,9.90
2020,08,09,04,52,9.80
2020,08,09,04,53,9.80
2020,08,09,04,54,9.80
2020,08,09,04,55,9.80
2020,08,09,04,56,9.80
2020,08,09,04,57,9.80
2020,08,09,04,58,9.80
2020,08,09,04,59,9.80
2020,08,09,05,00,9.80
2020,08,09,05,01,9.70
2020,08,09,05,02,9.70
2020,08,09,05,03,9.70
2020,08,09,05,04,9.70
2020,08,09,05,05,9.70
2020,08,09,05,06,9.70
2020,08,09,05,07,9.70
2020,08,09,05,08,9.70
2020,08,09,05,09,9.60
2020,08,09,05,10,9.60
2020,08,09,05,11,9.60
2020,08,09,05,12,9.60
2020,08,09,05,13,9.60
2020,08,09,05,14,9.60
2020,08,09,05,15,9.60
2020,08,09,05,16,9.60
2020,08,09,05,17,9.60
2020,08,09,05,18,9.60
2020,08,09,05,19,9.60
2020,08,09,05,20,9.60
2020,08,09,05,21,9.60
2020,08,09,05,22,9.60
2020,08,09,05,23,9.60
2020,08,09,05,24,9.60
2020,08,09,05,25,9.60
2020,08,09,05,26,9.60
2020,08,09,05,27,9.60
2020,08,09,05,28,9.60
2020,08,09,05,29,9.60
2020,08,09,05,30,9.60
2020,08,09,05,31,9.60
2020,08,09,05,32,9.60
2020,08,09,05,33,9.60
2020,08,09,05,34,9.60
2020,08,09,05,35,9.60
2020,08,09,05,36,9.60
2020,08,09,05,37,9.60
2020,08,09,05,38,9.60
2020,08,09,05,39,9.60
2020,08,09,05,40,9.60
2020,08,09,05,41,9.60
2020,08,09,05,42,9.60
2020,08,09,05,43,9.60
2020,08,09,05,44,9.60
2020,08,09,05,45,9.50
2020,08,09,05,46,9.50
2020,08,09,05,47,9.50
2020,08,09,05,48,9.50
2020,08,09,05,49,9.50
2020,08,09,05,50,9.50
2020,08,09,05,51,9.50
2020,08,09,05,52,9.60
2020,08,09,05,53,9.60
2020,08,09,05,54,9.60
2020,08,09,05,55,9.50
2020,08,09,05,56,9.50
2020,08,09,05,57,9.50
2020,08,09,05,58,9.50
2020,08,09,05,59,9.40
2020,08,09,06,00,9.40
2020,08,09,06,01,9.40
2020,08,09,06,02,9.40
2020,08,09,06,03,9.40
2020,08,09,06,04,9.40
2020,08,09,06,05,9.40
2020,08,09,06,06,9.40
2020,08,09,06,07,9.40
2020,08,09,06,08,9.40
2020,08,09,06,09,9.30
2020,08,09,06,10,9.30
2020,08,09,06,11,9.30
2020,08,09,06,12,9.30
2020,08,09,06,13,9.30
2020,08,09,06,14,9.30
2020,08,09,06,15,9.30
2020,08,09,06,16,9.30
2020,08,09,06,17,9.30
2020,08,09,06,18,9.30
2020,08,09,06,19,9.30
2020,08,09,06,20,9.30
2020,08,09,06,21,9.30
2020,08,09,06,22,9.30
2020,08,09,06,23,9.30
2020,08,09,06,24,9.30
2020,08,09,06,25,9.30
2020,08,09,06,26,9.30
2020,08,09,06,27,9.30
2020,08,09,06,28,9.40
2020,08,09,06,29,9.40
2020,08,09,06,30,9.40
2020,08,09,06,31,9.40
2020,08,09,06,32,9.40
2020,08,09,06,33,9.40
2020,08,09,06,34,9.40
2020,08,09,06,35,9.40
2020,08,09,06,36,9.40
2020,08,09,06,37,9.40
2020,08,09,06,38,9.40
2020,08,09,06,39,9.40
2020,08,09,06,40,9.40
2020,08,09,06,41,9.50
2020,08,09,06,42,9.50
2020,08,09,06,43,9.50
2020,08,09,06,44,9.50
2020,08,09,06,45,9.50
2020,08,09,06,46,9.50
2020,08,09,06,47,9.50
2020,08,09,06,48,9.50
2020,08,09,06,49,9.60
2020,08,09,06,50,9.60
2020,08,09,06,51,9.60
2020,08,09,06,52,9.60
2020,08,09,06,53,9.70
2020,08,09,06,54,9.70
2020,08,09,06,55,9.70
2020,08,09,06,56,9.70
2020,08,09,06,57,9.80
2020,08,09,06,58,9.80
2020,08,09,06,59,9.80
2020,08,09,07,00,9.90
2020,08,09,07,01,9.90
2020,08,09,07,02,9.90
2020,08,09,07,03,10.00
2020,08,09,07,04,10.00
2020,08,09,07,05,10.10
2020,08,09,07,06,10.10
2020,08,09,07,07,10.20
2020,08,09,07,08,10.20
2020,08,09,07,09,10.30
2020,08,09,07,10,10.30
2020,08,09,07,11,10.40
2020,08,09,07,12,10.40
2020,08,09,07,13,10.50
2020,08,09,07,14,10.50
2020,08,09,07,15,10.60
2020,08,09,07,16,10.70
2020,08,09,07,17,10.70
2020,08,09,07,18,10.70
2020,08,09,07,19,10.80
2020,08,09,07,20,10.80
2020,08,09,07,21,10.80
2020,08,09,07,22,10.90
2020,08,09,07,23,10.90
2020,08,09,07,24,11.00
2020,08,09,07,25,11.00
2020,08,09,07,26,11.10
2020,08,09,07,27,11.10
2020,08,09,07,28,11.20
2020,08,09,07,29,11.30
2020,08,09,07,30,11.40
2020,08,09,07,31,11.50
2020,08,09,07,32,11.60
2020,08,09,07,33,11.70
2020,08,09,07,34,11.70
2020,08,09,07,35,11.80
2020,08,09,07,36,11.90
2020,08,09,07,37,11.90
2020,08,09,07,38,12.00
2020,08,09,07,39,12.10
2020,08,09,07,40,12.10
2020,08,09,07,41,12.20
2020,08,09,07,42,12.20
2020,08,09,07,43,12.30
2020,08,09,07,44,12.40
2020,08,09,07,45,12.40
2020,08,09,07,46,12.50
2020,08,09,07,47,12.50
2020,08,09,07,48,12.60
2020,08,09,07,49,12.70
2020,08,09,07,50,12.70
2020,08,09,07,51,12.80
2020,08,09,07,52,12.80
2020,08,09,07,53,12.90
2020,08,09,07,54,12.90
2020,08,09,07,55,13.00
2020,08,09,07,56,13.10
2020,08,09,07,57,13.10
2020,08,09,07,58,13.20
2020,08,09,07,59,13.30
2020,08,09,08,00,13.30
2020,08,09,08,01,13.40
2020,08,09,08,02,13.40
2020,08,09,08,03,13.40
2020,08,09,08,04,13.50
2020,08,09,08,05,13.60
2020,08,09,08,06,13.70
2020,08,09,08,07,13.70
2020,08,09,08,08,13.80
2020,08,09,08,09,13.90
2020,08,09,08,10,13.90
2020,08,09,08,11,13.90
2020,08,09,08,12,14.00
2020,08,09,08,13,14.10
2020,08,09,08,14,14.10
2020,08,09,08,15,14.10
2020,08,09,08,16,14.20
2020,08,09,08,17,14.20
2020,08,09,08,18,14.20
2020,08,09,08,19,14.30
2020,08,09,08,20,14.30
2020,08,09,08,21,14.30
2020,08,09,08,22,14.30
2020,08,09,08,23,14.30
2020,08,09,08,24,14.40
2020,08,09,08,25,14.40
2020,08,09,08,26,14.40
2020,08,09,08,27,14.40
2020,08,09,08,28,14.50
2020,08,09,08,29,14.50
2020,08,09,08,30,14.60
2020,08,09,08,31,14.60
2020,08,09,08,32,14.60
2020,08,09,08,33,14.60
2020,08,09,08,34,14.60
2020,08,09,08,35,14.70
2020,08,09,08,36,14.70
2020,08,09,08,37,14.70
2020,08,09,08,38,14.70
2020,08,09,08,39,14.70
2020,08,09,08,40,14.70
2020,08,09,08,41,14.70
2020,08,09,08,42,14.70
2020,08,09,08,43,14.80
2020,08,09,08,44,14.80
2020,08,09,08,45,14.80
2020,08,09,08,46,14.90
2020,08,09,08,47,14.90
2020,08,09,08,48,15.00
2020,08,09,08,49,15.00
2020,08,09,08,50,15.10
2020,08,09,08,51,15.10
2020,08,09,08,52,15.10
2020,08,09,08,53,15.10
2020,08,09,08,54,15.10
2020,08,09,08,55,15.20
2020,08,09,08,56,15.20
2020,08,09,08,57,15.20
2020,08,09,08,58,15.30
2020,08,09,08,59,15.30
2020,08,09,09,00,15.30
2020,08,09,09,01,15.40
2020,08,09,09,02,15.40
2020,08,09,09,03,15.40
2020,08,09,09,04,15.40
2020,08,09,09,05,15.50
2020,08,09,09,06,15.50
2020,08,09,09,07,15.50
2020,08,09,09,08,15.50
2020,08,09,09,09,15.60
2020,08,09,09,10,15.60
2020,08,09,09,11,15.60
2020,08,09,09,12,15.70
2020,08,09,09,13,15.70
2020,08,09,09,14,15.70
2020,08,09,09,15,15.70
2020,08,09,09,16,15.70
2020,08,09,09,17,15.70
2020,08,09,09,18,15.70
2020,08,09,09,19,15.80
2020,08,09,09,20,15.80
2020,08,09,09,21,15.80
2020,08,09,09,22,15.80
2020,08,09,09,23,15.80
2020,08,09,09,24,15.90
2020,08,09,09,25,15.90
2020,08,09,09,26,15.90
2020,08,09,09,27,15.90
2020,08,09,09,28,15.90
2020,08,09,09,29,16.00
2020,08,09,09,30,16.00
2020,08,09,09,31,16.10
2020,08,09,09,32,16.20
2020,08,09,09,33,16.20
2020,08,09,09,34,16.20
2020,08,09,09,35,16.20
2020,08,09,09,36,16.20
2020,08,09,09,37,16.20
2020,08,09,09,38,16.30
2020,08,09,09,39,16.30
2020,08,09,09,40,16.30
2020,08,09,09,41,16.30
2020,08,09,09,42,16.30
2020,08,09,09,43,16.30
2020,08,09,09,44,16.30
2020,08,09,09,45,16.30
2020,08,09,09,46,16.40
2020,08,09,09,47,16.40
2020,08,09,09,48,16.40
2020,08,09,09,49,16.50
2020,08,09,09,50,16.50
2020,08,09,09,51,16.50
2020,08,09,09,52,16.60
2020,08,09,09,53,16.60
2020,08,09,09,54,16.60
2020,08,09,09,55,16.70
2020,08,09,09,56,16.70
2020,08,09,09,57,16.80
2020,08,09,09,58,16.80
2020,08,09,09,59,16.90
2020,08,09,10,00,16.90
2020,08,09,10,01,16.90
2020,08,09,10,02,17.00
2020,08,09,10,03,17.10
2020,08,09,10,04,17.10
2020,08,09,10,05,17.20
2020,08,09,10,06,17.30
2020,08,09,10,07,17.30
2020,08,09,10,08,17.20
2020,08,09,10,09,17.20
2020,08,09,10,10,17.20
2020,08,09,10,11,17.20
2020,08,09,10,12,17.20
2020,08,09,10,13,17.20
2020,08,09,10,14,17.20
2020,08,09,10,15,17.20
2020,08,09,10,16,17.20
2020,08,09,10,17,17.20
2020,08,09,10,18,17.10
2020,08,09,10,19,17.10
2020,08,09,10,20,17.10
2020,08,09,10,21,17.10
2020,08,09,10,22,17.10
2020,08,09,10,23,17.20
2020,08,09,10,24,17.20
2020,08,09,10,25,17.30
2020,08,09,10,26,17.30
2020,08,09,10,27,17.40
2020,08,09,10,28,17.50
2020,08,09,10,29,17.60
2020,08,09,10,30,17.70
2020,08,09,10,31,17.80
2020,08,09,10,32,17.80
2020,08,09,10,33,17.80
2020,08,09,10,34,17.80
2020,08,09,10,35,17.80
2020,08,09,10,36,17.70
2020,08,09,10,37,17.70
2020,08,09,10,38,17.70
2020,08,09,10,39,17.70
2020,08,09,10,40,17.70
2020,08,09,10,41,17.70
2020,08,09,10,42,17.70
2020,08,09,10,43,17.80
2020,08,09,10,44,17.80
2020,08,09,10,45,17.90
2020,08,09,10,46,18.00
2020,08,09,10,47,18.10
2020,08,09,10,48,18.20
2020,08,09,10,49,18.30
2020,08,09,10,50,18.40
2020,08,09,10,51,18.40
2020,08,09,10,52,18.40
2020,08,09,10,53,18.40
2020,08,09,10,54,18.50
2020,08,09,10,55,18.50
2020,08,09,10,56,18.50
2020,08,09,10,57,18.60
2020,08,09,10,58,18.70
2020,08,09,10,59,18.70
2020,08,09,11,00,18.70
2020,08,09,11,01,18.80
2020,08,09,11,02,18.80
2020,08,09,11,03,18.90
2020,08,09,11,04,19.00
2020,08,09,11,05,19.00
2020,08,09,11,06,19.10
2020,08,09,11,07,19.10
2020,08,09,11,08,19.10
2020,08,09,11,09,19.10
2020,08,09,11,10,19.10
2020,08,09,11,11,19.10
2020,08,09,11,12,19.20
2020,08,09,11,13,19.20
2020,08,09,11,14,19.20
2020,08,09,11,15,19.20
2020,08,09,11,16,19.20
2020,08,09,11,17,19.30
2020,08,09,11,18,19.30
2020,08,09,11,19,19.40
2020,08,09,11,20,19.50
2020,08,09,11,21,19.50
2020,08,09,11,22,19.50
2020,08,09,11,23,19.60
2020,08,09,11,24,19.70
2020,08,09,11,25,19.70
2020,08,09,11,26,19.70
2020,08,09,11,27,19.60
2020,08,09,11,28,19.60
2020,08,09,11,29,19.50
2020,08,09,11,30,19.50
2020,08,09,11,31,19.50
2020,08,09,11,32,19.50
2020,08,09,11,33,19.50
2020,08,09,11,34,19.60
2020,08,09,11,35,19.60
2020,08,09,11,36,19.70
2020,08,09,11,37,19.80
2020,08,09,11,38,19.90
2020,08,09,11,39,19.90
2020,08,09,11,40,20.00
2020,08,09,11,41,20.10
2020,08,09,11,42,20.10
2020,08,09,11,43,20.20
2020,08,09,11,44,20.30
2020,08,09,11,45,20.40
2020,08,09,11,46,20.50
2020,08,09,11,47,20.50
2020,08,09,11,48,20.60
2020,08,09,11,49,20.70
2020,08,09,11,50,20.70
2020,08,09,11,51,20.70
2020,08,09,11,52,20.70
2020,08,09,11,53,20.70
2020,08,09,11,54,20.70
2020,08,09,11,55,20.70
2020,08,09,11,56,20.70
2020,08,09,11,57,20.70
2020,08,09,11,58,20.70
2020,08,09,11,59,20.70
2020,08,09,12,00,20.70
2020,08,09,12,01,20.70
2020,08,09,12,02,20.60
2020,08,09,12,03,20.60
2020,08,09,12,04,20.60
2020,08,09,12,05,20.60
2020,08,09,12,06,20.60
2020,08,09,12,07,20.60
2020,08,09,12,08,20.70
2020,08,09,12,09,20.70
2020,08,09,12,10,20.80
2020,08,09,12,11,20.80
2020,08,09,12,12,20.90
2020,08,09,12,13,21.10
2020,08,09,12,14,21.10
2020,08,09,12,15,21.20
2020,08,09,12,16,21.20
2020,08,09,12,17,21.20
2020,08,09,12,18,21.20
2020,08,09,12,19,21.20
2020,08,09,12,20,21.20
2020,08,09,12,21,21.20
2020,08,09,12,22,21.20
2020,08,09,12,23,21.30
2020,08,09,12,24,21.30
2020,08,09,12,25,21.30
2020,08,09,12,26,21.30
2020,08,09,12,27,21.30
2020,08,09,12,28,21.30
2020,08,09,12,29,21.30
2020,08,09,12,30,21.30
2020,08,09,12,31,21.30
2020,08,09,12,32,21.30
2020,08,09,12,33,21.40
2020,08,09,12,34,21.40
2020,08,09,12,35,21.50
2020,08,09,12,36,21.50
2020,08,09,12,37,21.50
2020,08,09,12,38,21.40
2020,08,09,12,39,21.30
2020,08,09,12,40,21.20
2020,08,09,12,41,21.10
2020,08,09,12,42,21.10
2020,08,09,12,43,21.10
2020,08,09,12,44,21.10
2020,08,09,12,45,21.20
2020,08,09,12,46,21.30
2020,08,09,12,47,21.30
2020,08,09,12,48,21.30
2020,08,09,12,49,21.40
2020,08,09,12,50,21.40
2020,08,09,12,51,21.50
2020,08,09,12,52,21.60
2020,08,09,12,53,21.60
2020,08,09,12,54,21.60
2020,08,09,12,55,21.50
2020,08,09,12,56,21.50
2020,08,09,12,57,21.50
2020,08,09,12,58,21.40
2020,08,09,12,59,21.40
2020,08,09,13,00,21.40
2020,08,09,13,01,21.40
2020,08,09,13,02,21.40
2020,08,09,13,03,21.40
2020,08,09,13,04,21.40
2020,08,09,13,05,21.40
2020,08,09,13,06,21.40
2020,08,09,13,07,21.40
2020,08,09,13,08,21.30
2020,08,09,13,09,21.30
2020,08,09,13,10,21.30
2020,08,09,13,11,21.30
2020,08,09,13,12,21.30
2020,08,09,13,13,21.30
2020,08,09,13,14,21.30
2020,08,09,13,15,21.40
2020,08,09,13,16,21.40
2020,08,09,13,17,21.40
2020,08,09,13,18,21.40
2020,08,09,13,19,21.40
2020,08,09,13,20,21.40
2020,08,09,13,21,21.40
2020,08,09,13,22,21.30
2020,08,09,13,23,21.30
2020,08,09,13,24,21.20
2020,08,09,13,25,21.10
2020,08,09,13,26,21.00
2020,08,09,13,27,21.00
2020,08,09,13,28,20.90
2020,08,09,13,29,20.90
2020,08,09,13,30,20.90
2020,08,09,13,31,20.90
2020,08,09,13,32,20.80
2020,08,09,13,33,20.90
2020,08,09,13,34,20.90
2020,08,09,13,35,21.00
2020,08,09,13,36,21.10
2020,08,09,13,37,21.20
2020,08,09,13,38,21.30
2020,08,09,13,39,21.30
2020,08,09,13,40,21.30
2020,08,09,13,41,21.40
2020,08,09,13,42,21.30
2020,08,09,13,43,21.30
2020,08,09,13,44,21.30
2020,08,09,13,45,21.30
2020,08,09,13,46,21.30
2020,08,09,13,47,21.40
2020,08,09,13,48,21.40
2020,08,09,13,49,21.40
2020,08,09,13,50,21.40
2020,08,09,13,51,21.40
2020,08,09,13,52,21.40
2020,08,09,13,53,21.40
2020,08,09,13,54,21.40
2020,08,09,13,55,21.50
2020,08,09,13,56,21.60
2020,08,09,13,57,21.60
2020,08,09,13,58,21.60
2020,08,09,13,59,21.60
2020,08,09,14,00,21.70
2020,08,09,14,01,21.80
2020,08,09,14,02,21.80
2020,08,09,14,03,21.80
2020,08,09,14,04,21.90
2020,08,09,14,05,21.90
2020,08,09,14,06,21.90
2020,08,09,14,07,21.90
2020,08,09,14,08,21.90
2020,08,09,14,09,21.80
2020,08,09,14,10,21.80
2020,08,09,14,11,21.60
2020,08,09,14,12,21.60
2020,08,09,14,13,21.50
2020,08,09,14,14,21.40
2020,08,09,14,15,21.40
2020,08,09,14,16,21.40
2020,08,09,14,17,21.40
2020,08,09,14,18,21.40
2020,08,09,14,19,21.30
2020,08,09,14,20,21.30
2020,08,09,14,21,21.30
2020,08,09,14,22,21.40
2020,08,09,14,23,21.50
2020,08,09,14,24,21.50
2020,08,09,14,25,21.60
2020,08,09,14,26,21.70
2020,08,09,14,27,21.70
2020,08,09,14,28,21.80
2020,08,09,14,29,21.80
2020,08,09,14,30,21.80
2020,08,09,14,31,21.80
2020,08,09,14,32,21.90
2020,08,09,14,33,21.90
2020,08,09,14,34,21.90
2020,08,09,14,35,21.90
2020,08,09,14,36,22.00
2020,08,09,14,37,22.00
2020,08,09,14,38,22.00
2020,08,09,14,39,22.10
2020,08,09,14,40,22.20
2020,08,09,14,41,22.20
2020,08,09,14,42,22.30
2020,08,09,14,43,22.40
2020,08,09,14,44,22.50
2020,08,09,14,45,22.60
2020,08,09,14,46,22.60
2020,08,09,14,47,22.70
2020,08,09,14,48,22.80
2020,08,09,14,49,22.80
2020,08,09,14,50,22.90
2020,08,09,14,51,22.90
2020,08,09,14,52,22.90
2020,08,09,14,53,22.90
2020,08,09,14,54,22.90
2020,08,09,14,55,22.90
2020,08,09,14,56,22.90
2020,08,09,14,57,22.90
2020,08,09,14,58,22.90
2020,08,09,14,59,22.80
2020,08,09,15,00,22.80
2020,08,09,15,01,22.80
2020,08,09,15,02,22.80
2020,08,09,15,03,22.70
2020,08,09,15,04,22.70
2020,08,09,15,05,22.70
2020,08,09,15,06,22.60
2020,08,09,15,07,22.50
2020,08,09,15,08,22.50
2020,08,09,15,09,22.50
2020,08,09,15,10,22.40
2020,08,09,15,11,22.40
2020,08,09,15,12,22.40
2020,08,09,15,13,22.40
2020,08,09,15,14,22.50
2020,08,09,15,15,22.50
2020,08,09,15,16,22.50
2020,08,09,15,17,22.50
2020,08,09,15,18,22.50
2020,08,09,15,19,22.40
2020,08,09,15,20,22.40
2020,08,09,15,21,22.40
2020,08,09,15,22,22.40
2020,08,09,15,23,22.30
2020,08,09,15,24,22.30
2020,08,09,15,25,22.20
2020,08,09,15,26,22.20
2020,08,09,15,27,22.10
2020,08,09,15,28,22.10
2020,08,09,15,29,22.10
2020,08,09,15,30,22.10
2020,08,09,15,31,22.20
2020,08,09,15,32,22.20
2020,08,09,15,33,22.20
2020,08,09,15,34,22.30
2020,08,09,15,35,22.30
2020,08,09,15,36,22.30
2020,08,09,15,37,22.40
2020,08,09,15,38,22.50
2020,08,09,15,39,22.50
2020,08,09,15,40,22.60
2020,08,09,15,41,22.60
2020,08,09,15,42,22.70
2020,08,09,15,43,22.70
2020,08,09,15,44,22.70
2020,08,09,15,45,22.70
2020,08,09,15,46,22.70
2020,08,09,15,47,22.70
2020,08,09,15,48,22.70
2020,08,09,15,49,22.70
2020,08,09,15,50,22.60
2020,08,09,15,51,22.60
2020,08,09,15,52,22.60
2020,08,09,15,53,22.60
2020,08,09,15,54,22.60
2020,08,09,15,55,22.70
2020,08,09,15,56,22.70
2020,08,09,15,57,22.70
2020,08,09,15,58,22.70
2020,08,09,15,59,22.70
2020,08,09,16,00,22.70
2020,08,09,16,01,22.70
2020,08,09,16,02,22.70
2020,08,09,16,03,22.70
2020,08,09,16,04,22.70
2020,08,09,16,05,22.80
2020,08,09,16,06,22.80
2020,08,09,16,07,22.80
2020,08,09,16,08,22.80
2020,08,09,16,09,22.80
2020,08,09,16,10,22.80
2020,08,09,16,11,22.80
2020,08,09,16,12,22.80
2020,08,09,16,13,22.80
2020,08,09,16,14,22.80
2020,08,09,16,15,22.80
2020,08,09,16,16,22.80
2020,08,09,16,17,22.80
2020,08,09,16,18,22.80
2020,08,09,16,19,22.80
2020,08,09,16,20,22.80
2020,08,09,16,21,22.80
2020,08,09,16,22,22.90
2020,08,09,16,23,22.90
2020,08,09,16,24,22.90
2020,08,09,16,25,22.90
2020,08,09,16,26,22.90
2020,08,09,16,27,23.00
2020,08,09,16,28,22.90
2020,08,09,16,29,22.90
2020,08,09,16,30,22.90
2020,08,09,16,31,22.90
2020,08,09,16,32,22.90
2020,08,09,16,33,23.00
2020,08,09,16,34,23.00
2020,08,09,16,35,23.10
2020,08,09,16,36,23.10
2020,08,09,16,37,23.10
2020,08,09,16,38,23.10
2020,08,09,16,39,23.10
2020,08,09,16,40,23.10
2020,08,09,16,41,23.10
2020,08,09,16,42,23.10
2020,08,09,16,43,23.10
2020,08,09,16,44,23.10
2020,08,09,16,45,23.10
2020,08,09,16,46,23.00
2020,08,09,16,47,23.00
2020,08,09,16,48,23.00
2020,08,09,16,49,23.00
2020,08,09,16,50,23.00
2020,08,09,16,51,23.00
2020,08,09,16,52,22.90
2020,08,09,16,53,22.90
2020,08,09,16,54,22.90
2020,08,09,16,55,22.90
2020,08,09,16,56,22.80
2020,08,09,16,57,22.90
2020,08,09,16,58,22.90
2020,08,09,16,59,22.80
2020,08,09,17,00,22.80
2020,08,09,17,01,22.80
2020,08,09,17,02,22.80
2020,08,09,17,03,22.80
2020,08,09,17,04,22.80
2020,08,09,17,05,22.80
2020,08,09,17,06,22.80
2020,08,09,17,07,22.80
2020,08,09,17,08,22.90
2020,08,09,17,09,22.90
2020,08,09,17,10,22.90
2020,08,09,17,11,23.00
2020,08,09,17,12,23.00
2020,08,09,17,13,23.10
2020,08,09,17,14,23.10
2020,08,09,17,15,23.10
2020,08,09,17,16,23.10
2020,08,09,17,17,23.20
2020,08,09,17,18,23.20
2020,08,09,17,19,23.30
2020,08,09,17,20,23.30
2020,08,09,17,21,23.40
2020,08,09,17,22,23.40
2020,08,09,17,23,23.40
2020,08,09,17,24,23.40
2020,08,09,17,25,23.40